GFSMA_prec_radar_132.txt.gz
Reflectivity
-18 -14 -17 0 -4 20 2 1 -7 -5 -20 -20 -20 -20 -20 3 18 1 -20 -20 -20 -20 -20 -20 -20 -20 -20 -20 -20 -20 -20 -20 -20 -20 -20 -20 -20 -20 -16 -20 -20 -20 -12
-20 -19 -2 -5 -16 -20 -19 6 -8 36 34 16 14 -6 -20 6 -20 -20 -20 -20 14 -20 -20 -20 -20 -20 -20 -20 -20 -20 -20 -20 -20 -20 -20 -20 -20 -20 -20 -18 -20 13 0
-8 8 -7 -20 -20 -0 -20 -20 33 -3 34 23 34 37 36 -17 32 33 -20 -10 -20 16 -20 -20 -20 -20 -20 -20 -20 -20 -20 -20 -20 -20 -20 -20 -20 -20 -20 -20 0 -20 20
9 3 -9 -20 -5 -17 -20 -20 -20 -20 -20 -15 14 25 45 34 38 34 35 -12 -10 22 2 29 -17 -20 -12 32 -20 -20 -20 -20 -20 -20 -20 -20 -20 -20 -20 -20 -20 -13 -20
-11 -2 7 -17 -20 -20 -20 -20 -20 -11 -4 -20 -20 -13 -2 5 43 49 40 38 36 16 32 31 30 21 -17 10 11 -8 -20 -20 -20 -20 -20 -20 -20 -20 -20 -20 -20 -19 -19
16 5 -17 -20 -20 -20 -20 -20 -20 -20 -20 -20 -20 -20 -20 -18 13 14 24 24 31 30 36 37 26 31 30 34 27 23 18 -20 1 -20 -20 -20 -20 -20 -20 -20 -20 -20 -20
-20 10 -20 -20 -20 -20 -20 -20 -20 -20 -20 -20 -20 -20 -20 -20 -20 -13 1 3 28 47 50 46 44 37 28 -10 16 27 23 25 -20 4 -20 -20 -20 -20 -20 -20 -20 -20 26
-1 -3 -20 -20 -20 -20 -20 -20 -20 -18 -20 -20 -20 -20 -18 -20 -20 10 -20 -20 -20 16 22 24 27 16 7 -6 -4 16 13 -18 6 -0 -20 -20 -20 -20 -20 -20 -20 -20 -20
-20 -20 -20 -20 -20 -20 -20 -20 -20 -20 -20 -20 -20 4 5 -16 -20 -20 -12 -20 6 -4 1 3 11 11 -5 -15 -7 25 27 -2 7 33 -20 -20 -20 -20 -20 -20 -20 -3 -20
-20 -20 -20 -20 -20 -20 -20 -20 -19 -16 -2 1 -20 -20 -20 3 6 -6 -20 -20 -20 -20 21 15 -3 4 -16 -10 -13 24 17 15 27 -14 -20 -20 -20 -20 -20 -20 -20 -20 -20
-20 -20 -20 -20 -20 -20 -20 -12 -12 -10 -12 4 0 1 -10 -12 -20 -4 -19 -20 -20 -20 -2 -14 5 -13 -20 -20 -20 -19 16 13 -5 20 -15 -17 -20 -20 1 -20 -20 -20 -20
-20 -20 -20 -20 -20 -20 -20 -20 -11 -20 -20 -1 2 15 9 10 -5 17 14 -17 -20 -20 -20 -20 -16 23 28 -20 -20 -20 -20 6 -7 11 19 -3 11 -0 1 -5 -20 -20 -20
-20 -20 -18 -17 -20 -20 -20 -20 -20 -20 -20 -15 -8 3 -3 -7 4 7 7 15 12 -20 -20 -20 -20 -20 12 29 28 -6 -20 -3 -14 2 -19 12 -20 -20 25 -1 -3 -20 -20
-20 -19 -2 -20 -20 -20 -20 -16 -17 -16 -20 -8 -20 -20 -20 -0 0 0 1 10 -16 -20 -20 -20 -20 -20 -20 37 32 26 20 20 -20 2 27 28 -19 10 23 23 20 7 -18
-14 -20 -20 -7 -19 -17 -20 -4 -4 -20 -20 -20 -20 -15 -14 -20 -5 0 8 16 12 0 -19 -20 -18 -20 -20 -4 2 -12 22 21 22 11 21 -12 8 22 -5 22 4 20 21
-20 -20 -12 3 -3 -13 -5 -6 -12 -20 -10 -20 -13 -20 -3 -1 -13 4 2 9 13 2 -2 -20 -7 -20 -20 -20 -20 -20 -20 -20 6 -5 23 -19 15 -1 19 24 8 20 15
-20 -20 -20 -16 -8 1 11 6 -6 -20 -17 -8 -12 1 6 8 12 12 13 14 8 7 -10 -14 -20 -20 -20 -20 -20 -14 20 32 0 28 -20 -20 21 22 15 -20 15 -20 -20
-20 -20 -20 -20 -20 8 12 10 3 -1 3 4 5 -9 1 11 14 6 16 16 13 13 11 -12 -20 2 -16 -20 -20 -20 1 -1 -19 24 -17 -17 -5 22 20 19 -20 -20 -18
-20 -19 -20 -19 1 -6 0 -15 -20 -20 -13 -20 -10 -8 -4 -19 -20 1 10 5 6 8 17 5 -7 -10 -19 -20 -20 -20 -20 -20 -16 -20 -20 -14 27 4 16 -10 27 8 8
-20 -16 -18 -20 -1 8 -0 -13 -10 -16 -20 -20 -20 -1 -15 -14 -17 5 -10 -18 -19 -17 -12 14 15 4 -0 2 -14 -20 -20 -20 -18 -20 -20 -20 -6 10 16 12 2 20 22
-20 -20 -20 -20 -20 -3 -0 -16 -6 -20 -20 -20 -20 -20 -20 -20 -6 -2 6 2 -8 -20 -20 -20 11 -3 -0 -2 -19 13 -19 2 -20 -20 -12 -20 -11 15 -11 10 8 9 2
-20 -20 -20 -20 -20 -20 -20 -20 -20 -20 -20 -20 -20 -20 -20 -20 -20 -20 -20 -20 -2 -2 -20 -20 1 -20 -19 -13 -15 2 3 -20 -20 -20 -20 -20 -20 -20 9 -11 -20 -20 -11
-20 -20 -20 -12 -20 -20 -20 -20 -17 -18 -19 -14 -20 -20 -20 -20 -20 -20 -20 -20 -9 7 -13 5 2 1 -10 6 4 -20 -12 -3 -17 -19 -18 -19 -20 -20 -20 -17 13 -20 -10
-20 -20 -20 -20 -19 -20 -20 -20 -20 -20 -1 -14 -19 -20 -20 -20 -20 -20 -20 -20 -20 -20 -18 -19 -10 -12 -8 -1 6 -0 2 -20 -20 -19 -18 -19 -20 -20 -20 -20 -4 16 -20
-16 -20 -20 -20 -20 -20 -20 -20 -20 -20 -20 -17 -20 -20 -20 -20 -20 -20 -20 -20 -20 -20 -20 -20 -17 -20 -20 -20 -20 -20 -20 -18 -7 -20 -20 -20 -20 -20 -20 -20 -13 15 22
-20 -3 -20 -20 -12 -20 -20 -20 -20 -20 -20 -20 -20 -20 -20 -20 -20 -20 -20 -20 -20 -20 -20 -20 -20 -20 -20 -20 -20 -20 -7 -17 -19 -19 -18 -18 -20 -20 -18 -20 -20 -20 -20

GFSMA_prec_radar_135.txt.gz
Reflectivity
-20 3 -10 -6 -15 -9 12 -13 -14 -12 -5 27 37 13 -2 1 -17 32 8 -15 -20 -20 9 -15 -20 -20 -20 -20 -20 -20 -20 -20 -20 -20 -20 -20 -20 -20 -20 -20 -20 -13 -20
-11 -20 -20 -20 -20 -20 -20 -16 -19 -20 -20 -8 31 19 18 35 34 35 33 31 18 -8 12 -1 -9 -13 -20 -20 -20 -20 -20 -20 -20 -20 -20 -20 -20 -20 -20 -20 -20 -20 -20
-20 -20 -20 5 -20 -20 -20 -20 -20 -20 -20 -20 -20 -11 -13 29 29 26 45 42 44 34 9 -19 22 29 -20 -20 -20 -20 -20 -20 -20 -20 -20 -20 -20 -20 -20 -20 -20 -20 -20
-20 -20 -16 -2 -2 -20 -20 -20 -20 -20 -20 -20 -20 -20 8 18 24 15 10 44 48 40 37 31 4 27 15 -0 -15 -20 -20 -20 -20 -20 -20 -20 -20 -20 -20 -20 -20 -20 -20
-20 -20 -16 -17 -20 -16 -20 -20 -20 -20 -20 -20 -20 -20 -20 -20 -20 -19 -2 15 26 24 44 30 32 33 33 28 29 22 5 -20 -20 -20 -20 -20 -20 -20 -20 -20 -20 -20 -20
-20 -20 -19 -20 11 -20 -20 -20 -20 -20 -20 -20 -20 -20 -20 -20 -20 -20 -20 -10 -1 3 7 4 36 49 45 36 36 34 29 30 10 0 -2 -20 -20 -20 -20 -20 -20 -20 -20
-20 -20 -20 -20 -20 -18 -5 -20 -20 -20 -20 -20 -20 -20 -20 -20 -20 -20 -20 -20 -20 -20 -13 -11 8 31 44 42 34 14 18 27 19 -17 0 -20 -3 -20 -20 -20 -20 -20 -20
-20 -20 -20 -20 -20 -8 -20 -20 -20 -20 -20 -20 -18 -20 -20 -20 -20 -20 -20 -20 -20 -20 -20 -20 -20 9 25 29 21 10 25 25 29 23 -9 -1 -20 -20 -20 -20 -20 -20 -20
-20 -20 -20 -20 -20 -20 -20 -20 -20 -20 -14 -20 -18 -13 -13 -20 -20 -20 -20 -20 -20 -20 -20 -20 -20 -9 7 13 17 2 -11 4 25 29 32 -20 -20 -20 -20 -20 -20 0 -20
-20 -20 -20 -20 -20 -20 -20 -20 -20 -20 -20 -20 -19 -15 -16 -2 5 -10 -20 -20 -20 -20 -18 -19 -16 -20 -7 -5 3 -5 -20 -7 7 25 26 -20 6 -14 -20 -20 -20 -20 -20
-20 -20 -20 -20 -20 -20 -20 -20 -2 9 2 -8 8 12 4 -11 0 9 -11 -20 -20 -20 -20 -20 -20 -20 -0 -17 -8 6 -20 -20 -5 7 27 23 -6 31 -15 -20 -20 -20 -20
-20 -20 -20 -20 -20 -20 -20 -20 -19 -18 -7 7 -8 3 5 5 1 8 -15 -20 -20 -20 -20 -20 -20 -20 -20 -20 -20 26 4 21 -20 -15 23 21 16 20 17 16 -18 -20 -20
-20 -20 -20 -20 -20 -20 -20 -20 -12 -20 -20 -20 -20 -20 -16 -2 4 10 6 -20 10 -8 -20 -20 -20 -20 -20 -20 -18 17 -7 -20 -3 25 24 22 27 25 20 24 16 -9 -20
-20 -20 -20 -20 -20 -20 -20 -20 -20 -20 -20 -20 -20 -20 -20 -19 -5 5 2 -20 -20 -19 -13 -20 -20 -20 -20 -20 5 -19 -20 11 22 28 24 -20 25 24 23 22 21 -4 -17
-20 -20 -20 -20 -20 -15 -1 -20 -13 -20 -20 -12 -20 -9 -20 -20 -20 -10 6 -2 4 -13 -20 -20 -11 -20 -20 -20 -10 -20 -20 27 45 27 27 25 26 28 28 26 25 26 25
-20 -20 -20 -20 -20 -20 -10 4 10 2 -14 -4 -12 -10 -13 -17 -13 -20 -7 2 12 9 0 -17 -20 -20 -19 -20 -20 -20 -20 3 27 23 14 21 22 24 21 27 28 27 26
-20 -20 -20 -20 -20 -20 -14 13 16 2 9 7 -6 -7 -17 -11 4 -2 -2 -0 3 6 3 -20 -20 -20 -20 -20 -20 -20 -20 -20 5 8 -6 -17 4 27 28 23 27 25 23
-20 -20 -20 -20 -20 -20 -20 2 15 7 -20 6 -3 -20 -20 -20 -20 2 3 1 5 8 12 -0 -20 -20 -20 -20 -20 -20 -20 -20 -20 -20 -17 -20 -4 10 -20 -15 24 25 20
-20 -20 -20 -18 -20 -20 -20 -19 -8 11 10 -9 -3 -20 -20 -20 -20 1 -8 -20 -6 -7 8 12 -3 -9 -19 -11 -20 -20 -20 -20 -20 -20 -1 -20 -20 -3 0 11 4 23 21
-20 -20 -20 -20 -20 -20 -20 -18 -18 -1 13 10 -20 -20 -20 -20 -18 -5 1 -3 -6 -7 -12 1 -19 -15 -14 -20 -20 -20 -20 -14 7 -20 -20 -20 -20 -20 -20 -18 -12 7 18
-20 -20 -20 -20 -20 -20 -20 -20 -8 -8 -17 -12 -19 -20 -20 -20 -20 -17 -1 0 -2 -20 -1 -18 -19 -20 -20 -20 -20 -20 -20 -20 -20 -20 -20 -20 -20 -20 -20 -20 -20 10 20
-20 -20 -20 -20 -20 -20 -20 2 -20 -20 -11 -20 -18 -18 -20 -20 -20 -20 -20 -20 -18 1 -19 3 -17 2 -12 -18 -20 2 -20 -20 -20 -20 -20 -20 -20 -20 -20 -20 -20 -20 -20
-20 -20 -20 -20 -20 -20 -20 -20 3 -17 -1 -19 -16 -20 -20 -20 -20 -20 -20 -20 -20 -20 -20 3 3 3 -17 3 -5 -20 -20 -20 -20 -20 -20 -20 -20 -20 -20 -20 -20 -20 -20
-20 -20 -20 -20 -20 -20 -20 -20 -20 -19 -20 -20 -20 -20 -20 -20 -20 -20 -20 -20 -20 -20 -20 -12 -12 -15 -20 -18 -0 0 -17 -4 -20 -20 -20 -20 -20 -13 -9 -19 -20 -20 -20
-20 -20 -20 -20 -20 -20 -20 -20 -20 -20 -20 -20 -20 -20 -20 -20 -20 -20 -20 -20 -20 -20 -18 -20 -20 -20 -20 -6 -5 -20 -20 -20 -20 -20 -20 -19 -20 -20 -20 -19 -20 -20 -20
-20 -20 -20 -20 -20 -20 -20 -20 -20 -20 -20 -20 -20 -20 -20 -20 -20 -20 -20 -20 -20 -20 -20 -20 -20 -20 -20 -20 -20 -20 -20 -20 -20 -20 -20 -17 -20 -20 -20 -20 -20 -20 -20

GFSMA_prec_radar_138.txt.gz
Reflectivity
-20 -20 -20 -20 -20 -20 -20 -14 -9 -20 -20 -19 -0 -13 7 2 1 11 8 -7 12 12 -2 30 13 32 1 -6 -20 -20 -20 -20 -20 -20 -20 -20 -20 -20 -20 -20 -20 -20 -20
-20 -20 -20 -20 -20 -20 -20 -20 -20 -20 -20 -20 -9 -14 13 -15 -19 -18 -10 -7 31 26 29 21 29 29 32 20 1 -20 -20 -20 -20 -20 -20 -20 -20 -20 -20 -20 -20 -20 -20
-20 1 -18 -20 -20 -20 -20 -20 -20 -20 -20 -20 -20 -20 -20 -18 -20 24 28 28 39 40 33 41 35 44 31 23 17 8 -19 -20 -20 -20 -20 -20 -20 -20 -20 -20 -20 -20 -20
-20 -20 -20 -20 -20 -20 -20 -20 -20 -20 -20 -20 -20 -20 -20 -20 -20 -20 -20 -17 21 23 18 18 27 43 46 43 32 30 22 -3 -20 -20 -20 -20 -20 -20 -20 -20 -20 -20 -20
-20 -20 -20 -20 -20 -20 -20 -20 -20 -20 -20 -20 -20 -20 -20 -20 -20 -20 -20 -20 -20 -15 -15 -9 7 15 5 30 45 41 29 21 24 7 -20 3 -20 -20 -20 -20 -20 -20 -20
-20 -20 -20 -20 -20 -20 -20 -20 -20 -20 -20 -20 -20 -20 -20 -20 -20 -20 -20 -20 -20 -20 -20 -20 -12 -1 -6 -15 2 10 43 38 25 21 24 -7 -15 -4 -20 -20 -15 -20 -20
-20 -20 -20 -20 -20 -20 -20 -20 -20 -20 -20 -20 -20 -20 -20 -20 -20 -20 -20 -20 -20 -20 -20 -20 -20 -20 -19 -20 27 7 42 30 10 9 6 19 27 -14 -20 -20 -20 -20 -20
-20 -20 -20 -20 -20 -20 -20 -20 -20 -20 -20 -20 -20 -20 -20 -20 -20 -20 -20 -20 -20 -20 -20 -13 17 15 -20 -20 -13 -5 16 31 20 27 31 11 29 15 -20 -20 -20 -20 -7
-20 -20 -20 -20 -20 -20 -20 -20 -20 -20 -15 -20 -20 -16 -20 -20 -20 -20 -20 -20 -20 -20 -20 -20 -20 -4 5 -16 -20 4 1 7 5 2 24 29 23 23 0 11 -20 -20 -20
-20 -20 -20 -20 -20 -20 -20 -20 -20 -20 -20 -20 -20 -18 -20 -19 -5 -20 -20 -20 -20 -20 -20 -20 -20 -20 -14 -6 9 2 16 21 12 -20 -10 25 29 22 28 15 12 -20 -20
-20 -20 -20 -20 -20 -20 -20 -20 -20 -20 -12 -8 -4 -5 -20 -20 -18 1 -20 -20 -20 -20 -20 -20 -20 -20 -20 -20 -20 10 7 -1 20 20 23 -20 26 29 16 35 -6 -20 -20
-20 -20 -20 -20 -20 -20 -20 -20 -19 -20 -20 -20 -10 8 -9 3 -20 -2 -17 -20 -20 -20 -20 -20 -20 -20 -20 -20 -7 -8 -10 14 14 -5 -19 -14 5 24 20 27 7 -13 -3
-20 -20 -20 -20 -20 -20 -20 -20 -20 -20 -20 -16 -20 -20 -20 -18 -20 -18 -3 -20 -20 -20 -20 -20 -20 -20 -20 -20 -20 -12 -20 -20 2 -20 -20 -20 -20 -2 17 23 -9 31 18
-20 -20 -20 -20 -20 -20 -20 -20 -20 -20 -19 -20 -20 -20 -17 4 -20 -20 -1 -3 -20 -20 -20 -20 -20 -20 -20 -20 -20 -20 -20 -19 -2 -20 -19 11 15 -20 -15 21 14 -3 11
-20 -20 -20 -20 -20 -20 -20 -11 0 3 4 -15 -5 -9 -3 10 9 6 2 3 10 4 -20 -7 -20 -20 -20 -20 -19 -20 -20 -20 -20 -2 -8 -7 -6 5 7 17 -11 -6 21
-20 -20 -20 -20 -20 -20 -20 -6 -13 1 7 -5 7 4 -4 5 10 2 3 -10 -11 -9 -10 -20 -20 -20 -20 -20 1 -20 -20 -20 -20 -15 9 29 24 22 8 11 23 43 28
-20 -20 -20 -20 -20 -20 -20 -20 -19 -17 -10 -1 9 16 16 -9 0 5 -6 0 -1 4 2 -18 -20 -20 -20 -20 -20 -20 -20 -20 -13 -3 5 20 30 35 33 22 19 26 46
-20 -20 -20 -20 -20 -20 -20 -20 -20 -20 -20 -19 -10 11 11 -8 -20 1 -2 -2 -17 -2 3 1 -20 -18 -20 -20 -20 -20 -20 -20 -20 -20 15 23 29 26 27 24 26 1 21
-20 -20 -20 -20 -20 -20 -20 -20 -20 -20 -20 -19 -17 -18 -5 -16 -15 -5 -7 -1 -20 -20 -18 -1 -8 -20 -20 -20 -20 -20 -20 -20 -20 7 10 11 8 20 14 12 24 39 26
-20 -20 -20 -20 -20 -20 -20 -20 -20 -20 -20 -20 -8 -2 -1 6 -3 -12 -16 -2 -13 -17 -8 -3 -20 -17 -20 -20 -20 -20 -17 -20 -20 -20 -20 2 17 3 9 -12 2 10 32
-20 -20 -20 -20 -20 -3 -20 -20 -20 -20 -20 -20 -17 4 -3 -3 -3 -14 -1 2 0 -17 -0 -3 -5 -20 -20 -20 -20 -20 -20 -20 -20 -20 -20 -20 -17 -20 -7 -19 -15 -20 6
-20 -20 -20 -20 -20 -18 5 -20 -19 -20 -20 -20 -20 -20 -20 -17 -12 -17 -4 -20 -3 -1 2 -2 -0 -20 -6 2 -20 -1 -20 -20 -20 -20 -20 -20 -20 -20 -20 -20 -20 -20 -20
-20 -20 -20 -20 -20 -18 -7 -10 -20 -20 -20 -20 -20 -20 -20 -20 -20 -20 -20 -20 -20 -4 -1 -1 1 5 -1 7 1 -6 -17 -20 -20 -6 -20 -20 -20 -20 -20 -18 -20 -20 -20
-20 -20 -20 -20 -20 -20 -11 -20 -20 -20 -20 -20 -20 -20 -20 -20 -20 -20 -20 -20 -20 -20 -20 -14 -12 -10 -20 -11 -18 -2 -2 -20 -20 -9 -20 -20 -20 -20 -20 -20 -20 -20 -20
-20 -20 -20 -20 -20 -20 -20 -20 -20 -20 -20 -20 -20 -20 -20 -20 -12 -20 -20 -20 -20 -20 -20 -20 -20 -20 -18 -16 -19 -20 -20 -20 -20 -20 -20 -20 -10 -20 -20 -20 -20 -20 -20
-20 -20 -20 -20 -20 -20 -20 -20 -20 -20 -20 -20 -20 -20 -20 -20 -20 -20 -20 -20 -20 -20 -20 -20 -20 -20 -20 -20 -20 -20 -20 -20 -20 -20 -20 -20 -19 -20 -20 -20 -20 -20 -20

GFSMA_prec_radar_141.txt.gz
Reflectivity
5 -9 -20 -20 -20 -20 -20 -20 -20 -20 -20 -20 -20 -20 -20 -20 -20 -20 1 -4 15 -19 5 -5 17 10 0 20 26 13 17 -14 -20 -20 -20 -18 -20 -20 -20 -20 -20 -20 -20
-13 7 5 -20 -20 -20 -20 -20 -20 -20 -20 -20 -20 -20 -20 -20 -20 -20 -20 -7 6 19 12 33 17 26 33 26 35 36 29 16 -7 -19 -20 -20 29 -20 -20 -20 -20 -20 -20
-19 -14 -12 -20 -7 3 -20 -20 -20 -20 -20 -20 -20 -20 -20 -20 -20 -20 -20 -20 -20 -19 3 28 27 8 31 4 29 40 39 29 23 -1 -16 -20 -20 -18 -20 -20 -20 -20 -20
-20 -20 -20 -20 -20 -20 -20 -20 -20 -20 -20 -20 -20 -20 -20 -20 -20 -20 -20 -20 -20 -20 -20 -20 1 -8 -3 -13 -13 26 40 46 32 32 15 1 -3 -20 -20 -20 -20 -20 -20
-20 -20 -20 -20 -20 -20 -20 -20 -20 -20 -20 -20 -20 -20 -20 -20 -20 -20 -20 -20 -20 -20 -20 -20 -20 -20 -20 -20 -3 34 35 43 42 31 27 20 20 -20 -20 -20 -20 -12 -20
-20 -20 -20 -20 -20 -20 -20 -20 -20 -20 -20 -20 -20 -20 -20 -20 -20 -20 -20 -20 -20 -20 -20 -20 -20 -20 -20 -20 -12 24 27 16 17 15 22 33 30 31 28 -20 -20 -20 -20
-20 -20 -20 -20 -20 -20 -20 -20 -20 -20 -20 -20 -20 -20 -20 -20 -20 -20 -20 -20 15 5 17 25 -20 -20 14 -20 -8 -9 -8 25 24 -1 14 6 -9 9 26 13 -3 -20 -20
-20 -20 -20 -20 -20 -20 -20 -20 -20 -20 -20 -20 -20 -20 -20 -20 -20 -20 -20 -20 -20 -20 -18 -9 6 11 20 21 20 22 -16 -9 -7 13 -9 12 11 -20 27 17 19 16 -20
-20 -20 -20 -20 -20 -20 -20 -20 -20 -20 -20 -20 -20 -18 -20 -20 -20 -20 -20 -20 -20 -20 -20 -20 -20 5 10 9 15 11 12 -2 -20 -20 -13 2 2 4 -18 6 -3 8 13
-20 -20 -20 -20 -20 -20 -20 -20 -20 -20 -20 -20 -20 -20 -20 -6 -3 -20 -20 -20 -20 -20 -6 -20 -20 -20 -20 15 4 19 16 8 19 -9 -20 -20 -15 12 5 22 23 -16 6
-20 -20 -20 -20 -20 -20 -20 -20 -20 -20 -20 -3 -9 -3 -20 -17 -1 8 -19 -20 -20 -20 -20 -20 -20 -20 -20 -20 -20 3 12 16 10 16 11 -15 -19 -20 -4 -20 13 11 11
-20 -20 -20 -20 -20 -20 -20 -20 -20 -20 -20 -20 -20 -2 -14 7 -8 3 4 -1 -20 -19 -20 -9 -16 -20 -20 -20 -20 -20 6 14 14 13 -10 3 0 -13 -20 -20 -12 8 21
-20 -20 -20 -20 -20 -20 -20 -20 -20 -20 -20 -20 -20 -20 -20 -20 -10 -5 -12 6 -20 -20 -20 -20 -11 -20 -20 -20 -20 -20 -20 -14 13 14 11 -6 9 9 8 -18 -3 12 -16
-20 -20 -20 -20 -20 -20 -20 -20 -6 1 -20 -20 -20 -18 -18 -10 7 10 9 5 -9 -5 -9 -13 -9 -20 -20 -20 -20 -20 -20 -20 -14 5 0 -6 -20 -4 5 13 4 -17 16
-20 -20 -20 -20 -20 -20 -20 -20 -18 -1 -20 -14 -20 -20 -10 -7 10 15 11 11 17 1 -11 8 13 -5 -20 -20 -20 -20 -20 -20 -20 -20 9 1 8 5 9 12 15 10 16
-20 -20 -20 -20 -20 -20 -20 -20 -20 -20 -20 -20 -20 -20 -20 -20 13 12 13 13 15 15 4 -13 -20 -20 -20 -20 -20 -20 -15 7 9 12 11 11 7 9 -8 10 -12 -4 23
-20 -20 -20 -20 -20 -20 -20 -20 -20 -20 -20 -20 -20 -20 -20 -1 4 14 18 1 7 12 5 -4 -14 -15 -20 -20 -20 -20 -11 -20 -8 13 13 9 -2 1 1 -3 30 28 27
-20 -20 -20 -20 -20 -20 -20 -20 -20 -20 -20 -20 -20 -20 -20 -3 7 12 21 22 14 7 3 -11 -16 -20 -19 -8 -19 -20 -20 -20 -3 12 15 15 8 14 14 -6 7 28 23
-20 -20 -20 -20 -20 -20 -20 -20 -20 -20 -20 -20 -20 -20 -17 -5 2 5 7 6 -13 -18 -6 -3 -9 -20 -20 -20 -20 -20 -15 -20 -19 10 11 10 7 -6 27 14 29 27 29
-20 -20 -20 -20 -20 -20 -20 -20 -20 -20 -20 -20 -20 -20 -20 -4 -2 -4 2 -3 -4 4 -12 -20 -20 -20 -20 -20 -20 -20 -20 -20 -17 -20 9 11 10 12 4 15 15 28 25
-20 -20 -20 -20 -10 -20 -20 -20 -20 -20 -20 -20 -20 -20 -20 -10 -1 3 -1 1 -20 -20 -20 -20 -20 -20 -20 -20 -20 -20 -20 -20 -20 -20 -20 -20 -17 -16 13 3 26 16 23
-20 -20 -20 -20 -20 -4 -20 -20 -20 -20 -20 -20 -20 -20 -20 -20 -20 -8 -2 1 -1 -7 -15 -5 -8 -11 -7 -2 -20 -20 -20 -20 -20 -20 -20 -20 -20 -20 -20 -7 -6 16 21
-20 -20 -20 -20 -20 -20 -20 -20 -20 -20 -20 -20 -20 -20 -20 -20 -20 -20 -20 -20 -3 -4 1 -2 -5 -5 1 -12 -20 -20 -20 -20 -20 -20 -20 -20 -20 -20 -20 -20 -20 -11 -10
-20 -20 -20 -20 -20 -20 -20 -20 -20 -20 -20 -20 -20 -20 -20 -20 -20 -20 -20 -20 -20 -20 -12 -7 -0 -20 -2 -12 -20 -20 -20 -20 -20 -20 -20 -20 -20 -20 -20 -20 -20 -11 -4
-20 -20 -20 -20 -20 -20 -12 -20 -20 -20 -20 -20 -20 -20 -20 -20 -20 -20 -20 -20 -20 -20 -20 -20 -20 -20 -17 -20 -20 -20 -20 -20 -20 -20 -20 -20 -20 -20 -20 -20 -20 -20 -19
-20 -20 -20 -20 -20 -20 -4 -20 -20 -20 -20 -20 -20 -20 -3 -18 -3 -20 -20 -20 -20 -20 -20 -20 -20 -20 -20 -20 -20 -20 -20 -20 -20 -20 -20 -20 -20 -20 -20 -20 -20 -20 -20

GFSMA_prec_radar_144.txt.gz
Reflectivity
7 -17 3 3 7 7 -20 -20 -20 -20 -20 -20 -20 -20 -20 -20 -20 7 -4 -20 -20 -20 -20 -20 11 -7 -20 -20 15 6 12 23 16 11 22 12 -18 -20 -20 3 -5 -1 -8
-20 -15 -20 -20 -20 -20 -20 -18 -1 -6 -18 -20 -20 -20 -20 -20 -20 -20 -9 -9 -20 -20 -20 -15 -20 23 24 33 34 8 15 25 29 20 28 -2 11 6 -20 11 -20 3 2
-20 -20 -20 -20 -20 -20 -20 -20 -20 -17 -20 -20 -20 -20 -20 -20 -20 -20 -20 -19 0 1 2 -20 -7 -12 9 27 28 35 31 29 4 29 31 17 27 1 26 11 -20 -19 -20
-20 -20 -20 -20 -20 -20 -20 -20 -20 -20 -20 -20 -20 -20 -20 -20 -20 -20 -20 -20 -20 -20 -13 -19 -20 -20 -14 -3 -18 28 26 -20 -19 12 10 23 16 12 29 -11 -20 -20 -10
-20 -20 -20 -20 -20 -20 -20 -20 -20 -20 -20 -20 -20 -20 -20 -20 -20 -20 -20 -20 -15 1 -11 19 -16 -11 -20 -20 -20 -2 -14 -20 -20 1 34 31 28 28 26 29 -20 -20 -20
-20 -20 -20 -20 -20 -20 -20 -20 -20 -20 -20 -20 -20 -20 -20 -20 -20 -20 -20 -20 -20 -20 -20 -20 -19 -0 -11 -20 -20 -20 -20 -20 -6 5 16 20 17 0 2 2 29 -11 -20
-20 -20 -20 -20 -20 -20 -20 -20 -20 -20 -20 -20 -20 -20 -20 -20 -20 -20 -20 -20 -20 -20 -14 -20 -20 -7 8 20 -2 8 7 5 17 7 -7 8 5 -2 -13 -9 -16 17 -4
-20 -20 -20 -20 -20 -20 -20 -20 -20 -20 -20 -20 -20 -20 -20 -20 -20 -20 -20 -20 -20 -20 2 -16 -20 -20 -20 -13 17 17 2 18 26 18 1 -3 27 27 36 22 6 -19 16
-20 -20 -20 -20 -20 -20 -20 -20 -20 -20 -9 -20 -20 -12 -20 -20 -20 -20 -20 -20 -20 -10 -13 4 5 8 -17 -7 11 19 1 -12 -4 11 9 22 26 18 2 2 -15 7 -14
-20 -20 -20 -20 -20 -20 -20 -20 -20 -20 -20 -7 -20 -19 -18 -15 5 -20 -20 -20 -20 -20 -20 -20 -12 6 12 -1 18 16 5 -20 10 10 -17 11 17 5 -11 -20 -20 -20 26
-20 -20 -20 -20 -20 -20 -20 -20 -20 -20 -20 -20 -20 -16 -20 -20 -6 0 -19 -20 -20 -20 -20 -20 -20 -20 -20 -20 -19 14 14 8 4 10 1 -19 -17 -4 6 -19 -20 -18 -12
-20 -20 -20 -20 -20 -20 -20 -20 -20 -20 -20 -20 -20 -20 -16 -2 -20 -10 -14 -7 -20 -20 -20 -20 -20 -20 -20 -20 -20 -20 -18 -16 -20 -17 15 7 0 -7 -6 -18 -5 -19 3
-20 -20 -20 -20 -20 -20 -20 -20 -20 -20 -20 -20 -20 -20 -20 -5 -1 -4 -13 -7 -8 -20 -20 -17 -20 -20 -20 -20 -20 -20 -20 6 -20 -20 -20 5 13 11 7 6 10 12 -20
-20 -20 -20 -20 -20 -20 -20 -20 -20 -20 -20 -20 -20 -20 -19 -11 3 3 7 8 -10 -4 -20 -20 -20 -20 -20 -18 -18 -20 -20 -20 -20 5 6 -19 -9 -4 7 12 1 -18 17
-20 -20 -20 -20 -20 -20 -20 -20 -20 -20 -20 -20 -20 -20 -20 -18 7 -3 3 7 22 3 -1 -8 -14 -20 -20 -20 -20 -17 -18 11 10 -4 -19 4 -7 1 -9 2 6 -2 18
-20 -20 -20 -20 -20 -20 -20 -20 -20 -20 -20 -20 -20 -20 -20 -20 -20 -1 10 12 1 5 1 9 -4 -20 -20 -20 -20 -8 -18 11 9 6 4 3 -16 -17 -4 2 -15 -10 -1
-20 -20 -20 -20 -20 -20 -20 -20 -20 -20 -20 -20 -20 -20 -20 -20 -4 -19 4 10 12 17 8 5 4 7 -20 -20 -20 -3 -12 -20 0 9 11 8 6 10 11 7 8 -0 0
-20 -20 -20 -20 -20 -20 -20 -20 -20 -20 -20 -20 -20 -20 -20 -20 -20 -16 0 10 12 16 19 17 2 -17 -20 -19 -18 -19 -12 -8 2 17 13 11 14 13 14 10 -2 12 6
-20 -20 -20 -20 -20 -20 -20 -20 -20 -20 -20 -20 -20 -20 -20 -20 -12 0 4 7 10 7 9 6 16 5 -16 -20 -20 -20 -18 -5 -5 12 8 8 10 11 12 11 5 -5 -8
-20 -20 -20 -20 -20 -20 -20 -20 -20 -20 -20 -20 -20 -20 -20 -20 -6 -4 -1 2 3 8 10 8 -1 4 -2 -18 -20 -20 -20 -20 -16 -9 7 7 10 9 -1 -4 -5 -3 15
-20 -20 -20 -20 -20 -20 -20 -20 -20 -20 -20 -20 -20 -20 -20 -20 -7 -5 -5 1 1 1 -0 -7 -1 -5 5 -19 -20 -20 -20 -20 -20 -20 -20 -19 -20 -17 -13 15 -1 5 -20
-20 -20 -20 -20 -20 -20 -20 -20 -20 -20 -20 -20 -20 -20 -20 -20 -20 -10 -7 -18 2 4 -16 -8 -10 -14 -20 -20 -20 -20 -20 -20 -20 -20 -20 -20 -20 -20 -20 -20 -20 -20 -18
-20 -20 -20 -20 -20 -20 -20 -20 -20 -20 -20 -20 -20 -20 -20 -20 -20 -20 -20 -20 -3 -6 -5 -11 -13 1 -10 -3 -20 -20 -20 -20 -14 -20 -20 -20 -20 -20 -20 -20 -20 -20 -20
-20 -20 -20 -20 -20 -20 -20 -20 -20 -20 -20 -20 -20 -20 -20 -20 -20 -20 -20 -20 -20 -20 -14 -19 -5 -20 -6 -12 -20 -20 -20 -20 -17 -20 -20 -20 -20 -20 -20 -20 -20 -20 -20
-20 -20 -20 -20 -20 -20 -20 -20 -20 -20 -20 -20 -20 -20 -20 -20 -20 -20 -20 -20 -20 -20 -20 -20 -20 -20 -9 -20 -20 -20 -20 -20 -20 -20 -20 -20 -20 -20 -20 -20 -20 -20 -20
-20 -20 -20 -20 -20 -20 -20 -20 -20 -20 -20 -20 -20 -20 -5 -19 -20 -20 -20 -20 -20 -20 -20 -20 -20 -20 -20 -20 -20 -20 -20 -20 -20 -20 -20 -20 -20 -20 -20 -20 -20 -20 -20